Location: Hackbridge
(51.3833°N, 0.1500°W)
Time: 08:11:57
(UTC+00:00)

STARLINK-56 - Pass Details

Date: 13 October 2019
Orbit: 548 x 551 km, 53.0° (Epoch: 17 November)

Event Time Altitude Azimuth Distance (km) Brightness Sun altitude
Rises 19:15:42 0° 241° (WSW) 2,711 7.9 -19.9°
Reaches altitude 10° 19:17:56 10° 239° (WSW) 1,821 6.9 -20.3°
Maximum altitude 19:22:02 68° 156° (SSE) 594 3.5 -20.9°
Enters shadow 19:22:18 66° 128° (SE) 605 3.5 -20.9°
